Location: Complexul Astronomic Baia Mare
(47.6577°N, 23.5639°E)
Time: 06:53:16
(UTC+03:00)

ISS - Pass Details

Date: 15 May 2017
Orbit: 402 x 408 km, 51.6° (Epoch: 29 May)

Event Time Altitude Azimuth Distance (km) Brightness Sun altitude
Exits shadow 04:21:26 12° 272° (W) 1,361 -1.6 -12.3°
Maximum altitude 04:24:22 49° 347° (NNW) 534 -3.0 -11.9°
Drops below altitude 10° 04:27:34 10° 64° (ENE) 1,464 0.3 -11.6°
Sets 04:29:42 0° 70° (ENE) 2,323 1.3 -11.3°
